Location: Kernascl�den
(48.0062°N, 3.3198°W)
Time: 22:38:14
(UTC+00:00)

ATLAS 5 CENTAUR R/B - Pass Details

Date: 21 January 2021
Orbit: 511 x 1147 km, 63.3° (Epoch: 16 February)

Event Time Altitude Azimuth Distance (km) Brightness Sun altitude
Rises 20:05:38 0° 289° (WNW) 2,814 6.0 -31.3°
Reaches altitude 10° 20:08:40 10° 313° (NW) 2,014 4.8 -31.8°
Enters shadow 20:10:37 15° 339° (NNW) 1,790 4.1 -32.1°
